Location: Zagreb
(45.8000°N, 16.0000°E)
Time: 17:31:14
(UTC+01:00)

Vanguard 2 Rocket - Pass Details

Date: 26 January 2020
Orbit: 553 x 3327 km, 32.9° (Epoch: 24 February)

Event Time Altitude Azimuth Distance (km) Brightness Sun altitude
Exits shadow 05:28:59 11° 208° (SSW) 2,012 8.5 -20.2°
Maximum altitude 05:32:06 20° 163° (SSE) 1,775 8.6 -19.6°
Drops below altitude 10° 05:36:30 10° 119° (ESE) 2,803 10.4 -18.9°
Sets 05:40:41 0° 104° (ESE) 4,249 12.0 -18.1°
